Wind_Speed
45 47 41 39 44 46 46 47 49 42 48 55 49 55 46 42 46 40 37 38 41 43 44 42 42 44 44 44 44 45 45 46 47 45 44 43 46 48 50 51 52 52 52 53
47 49 38 43 44 47 48 49 47 47 52 56 54 58 52 48 45 39 39 36 39 44 43 46 46 48 47 47 46 47 48 49 49 48 48 50 52 51 51 52 53 53 52 51
49 49 46 44 45 46 47 49 47 51 53 55 59 60 52 48 44 36 34 36 37 39 46 46 46 45 46 48 49 49 49 48 47 49 52 54 52 50 51 51 52 54 54 52
55 50 50 49 48 45 51 46 47 48 54 57 61 64 51 46 46 39 36 35 37 44 43 35 36 42 46 48 51 51 49 47 50 54 54 53 53 53 52 52 53 52 51 51
53 53 47 50 47 45 50 47 48 51 56 62 63 61 59 54 47 45 43 42 47 35 27 31 34 37 45 50 54 55 52 49 51 52 54 56 56 57 57 55 53 51 50 50
49 52 51 51 50 51 52 53 53 56 60 67 62 62 67 61 53 54 49 47 41 39 37 35 37 43 46 49 53 54 55 50 49 50 53 56 57 58 55 52 50 49 49 52
55 57 56 53 50 51 53 53 57 63 65 68 61 67 69 67 65 63 59 41 41 40 35 30 29 34 41 47 51 55 57 55 46 47 53 58 60 57 53 49 49 50 54 57
58 60 56 56 55 54 56 57 60 66 66 70 67 69 68 69 69 65 56 44 35 34 33 34 36 38 44 50 53 57 57 56 52 49 52 58 57 55 52 51 51 54 57 59
54 58 60 61 59 59 64 63 59 63 67 72 70 70 67 68 68 60 29 40 31 33 37 39 43 39 45 50 55 56 57 57 59 57 54 56 58 56 55 55 56 57 59 60
60 62 59 60 61 65 68 66 67 67 69 74 63 66 70 70 70 45 52 33 37 48 41 44 50 45 50 53 56 56 56 58 56 58 58 55 58 61 59 58 61 62 63 62
61 63 64 65 65 61 63 64 67 66 68 69 67 66 72 71 67 58 48 44 44 47 46 49 49 50 53 57 56 59 62 64 64 62 60 62 63 64 62 63 64 65 64 64
71 72 75 70 63 61 67 69 70 73 70 70 68 70 65 59 55 56 47 51 48 51 53 55 53 60 59 61 64 65 63 65 67 65 65 66 66 67 65 67 68 67 66 66
68 72 74 71 67 67 69 65 66 68 66 70 74 70 57 52 56 55 57 55 55 59 58 60 62 63 64 67 67 61 61 66 64 63 64 65 66 69 70 69 67 67 66 68
71 74 72 74 68 64 68 67 67 69 73 71 74 73 60 55 56 56 56 60 64 60 64 61 64 62 63 65 62 60 67 63 62 60 62 63 65 66 65 66 67 66 67 68
62 68 70 69 67 68 71 73 75 73 73 77 69 71 65 61 57 60 63 57 56 59 60 62 61 58 60 64 64 66 66 63 64 63 64 64 61 59 61 64 66 67 65 69
61 64 64 66 64 65 73 75 73 72 75 72 72 72 66 60 59 57 53 56 58 54 57 59 61 65 66 63 67 70 68 69 67 65 65 65 64 64 64 62 65 65 67 69
71 69 68 70 65 66 74 69 66 63 65 67 69 65 57 61 59 51 58 61 65 64 64 65 67 67 65 67 69 70 71 71 67 67 67 66 65 64 63 62 61 63 67 69
83 82 79 80 73 78 70 64 64 69 70 66 66 58 58 60 59 67 65 59 62 64 66 67 65 64 64 64 63 62 63 67 68 68 68 65 65 63 62 62 65 67 65 65
95 91 92 89 90 90 87 71 65 65 71 68 68 65 69 73 63 64 61 64 71 71 73 72 74 77 75 69 69 66 63 65 64 62 61 63 65 64 63 64 62 62 65 67
88 88 87 85 89 96 91 81 79 82 92 82 76 81 77 66 63 68 61 64 66 68 70 72 67 61 61 67 69 65 63 57 55 58 64 64 64 61 60 60 60 63 66 67
77 81 82 83 91 93 86 85 88 94 99 89 78 76 74 66 67 66 65 69 72 72 71 70 58 57 55 47 48 50 55 57 57 55 61 59 58 60 59 58 62 65 66 66
76 82 82 89 97 101 96 89 90 89 81 81 82 77 74 73 75 78 74 73 74 74 73 65 58 58 60 62 62 62 60 60 59 60 61 60 61 60 59 62 66 68 67 67
81 84 86 83 93 86 80 79 78 79 83 83 77 76 74 78 82 79 69 70 71 73 70 61 56 55 62 72 77 74 67 61 64 68 56 54 60 61 60 59 61 66 68 66
72 78 77 70 69 70 69 68 75 78 84 73 74 70 67 69 67 66 66 65 70 69 65 65 69 76 69 66 68 72 72 69 64 65 65 62 63 62 65 62 60 64 66 66
58 52 60 68 65 73 80 79 81 77 60 63 56 56 63 66 67 64 65 65 68 69 67 76 84 77 69 68 70 68 69 71 65 64 63 64 71 64 63 61 61 63 63 64
99 99 95 101 95 89 90 86 83 66 59 57 64 70 75 75 75 70 71 69 76 80 80 89 93 86 77 74 71 70 68 70 69 68 74 69 67 65 60 61 59 61 60 60
Wind_Direction
277 277 284 286 279 279 277 277 278 283 280 281 282 281 282 278 281 287 290 291 291 293 295 295 296 294 290 287 286 287 289 289 290 293 291 293 291 287 284 282 282 282 281 282
279 278 284 279 281 281 280 278 278 277 276 280 281 280 284 284 282 284 288 287 288 291 292 295 295 290 284 281 281 282 284 287 286 288 290 290 290 289 288 286 284 282 283 284
274 279 277 277 279 281 279 277 279 279 278 278 280 279 282 283 286 286 282 285 289 288 290 293 288 282 281 280 281 283 286 289 287 287 288 288 287 288 287 285 286 285 285 284
270 272 274 275 274 277 277 277 277 276 277 280 278 286 282 288 291 291 291 291 294 293 294 289 281 277 279 282 284 286 287 287 288 288 286 285 286 285 287 287 286 286 284 281
272 271 271 270 273 271 275 275 275 276 276 279 278 285 293 291 291 295 297 305 305 298 282 286 273 275 279 281 282 283 286 288 286 285 286 285 286 286 283 286 285 282 280 280
268 268 268 269 270 271 273 273 273 274 274 276 282 286 288 291 295 298 299 311 302 302 292 285 271 274 279 280 280 283 287 285 286 286 286 285 286 286 285 283 281 279 279 279
267 267 267 267 268 268 270 271 271 271 271 278 282 282 285 291 299 297 306 308 304 298 292 291 284 280 277 276 280 282 286 290 289 287 288 286 286 287 285 283 281 280 281 282
269 269 266 266 267 267 265 264 266 272 277 281 279 280 287 290 291 295 304 316 299 285 295 294 289 283 283 284 286 290 291 294 295 294 292 290 287 284 282 282 280 280 282 283
272 264 264 263 264 264 266 264 266 268 273 277 282 284 287 290 295 300 307 310 285 291 296 293 290 290 289 291 292 293 296 301 303 301 299 291 287 286 284 284 280 283 283 283
267 267 266 266 265 264 262 268 270 271 272 273 279 285 288 290 288 292 309 307 299 296 294 291 290 295 292 292 294 299 302 302 301 303 299 292 289 287 286 284 283 283 283 284
265 263 262 261 262 266 265 263 264 266 268 272 280 278 282 287 293 302 302 303 297 295 291 285 289 295 294 293 293 296 299 302 304 299 298 295 293 288 288 284 282 282 283 286
272 268 265 265 262 263 265 266 263 264 269 273 274 269 273 285 289 292 297 299 293 291 290 287 287 286 289 293 294 293 298 303 302 299 297 296 294 291 289 286 284 283 285 288
267 264 265 266 264 265 269 272 270 271 270 266 271 274 281 280 287 290 299 296 290 286 286 285 284 285 290 293 293 293 299 297 299 297 294 293 292 291 291 287 284 284 286 289
265 264 266 266 266 270 270 271 269 266 264 271 270 277 276 281 278 281 284 284 286 287 283 280 278 282 285 287 289 293 295 294 296 293 291 289 288 287 286 283 283 284 287 288
265 266 267 266 264 263 264 266 267 270 273 268 278 276 282 280 280 281 284 288 280 276 278 281 283 279 281 286 286 288 291 289 290 290 292 292 290 286 281 283 281 283 285 289
265 269 267 265 263 263 262 260 263 265 268 276 278 275 282 286 285 283 281 278 278 277 279 280 280 284 287 285 284 286 287 287 289 289 290 290 290 288 286 284 282 285 289 292
268 274 271 269 269 265 258 265 268 267 264 272 275 283 283 283 284 286 282 286 290 286 285 286 285 284 283 284 284 285 285 287 287 285 286 285 284 283 282 282 285 288 290 292
269 271 274 273 270 267 270 266 267 267 266 269 276 279 281 284 283 286 287 287 283 282 283 279 280 281 282 283 283 283 283 285 289 290 287 287 286 280 280 283 287 291 292 291
272 274 275 273 273 272 267 266 268 271 271 269 269 275 282 287 289 282 284 282 280 282 280 281 281 282 285 282 283 281 283 286 288 287 285 284 279 277 283 287 291 294 294 291
273 274 268 267 266 267 275 271 269 269 277 272 274 283 289 284 273 276 280 279 279 279 280 282 284 282 281 281 281 280 284 286 285 281 280 278 278 283 287 288 290 290 289 289
265 270 267 270 271 271 271 275 276 273 276 284 286 282 278 273 275 278 278 277 277 278 278 278 279 279 279 277 282 283 283 284 284 279 276 279 285 287 288 286 285 286 286 287
256 266 265 269 274 273 278 281 274 277 278 277 277 278 274 272 273 276 273 273 275 275 275 274 271 276 278 281 281 287 291 291 286 275 279 280 281 281 284 283 284 282 283 285
271 271 272 274 276 276 275 275 275 275 273 271 271 271 276 277 275 270 266 267 270 271 271 268 271 275 282 285 289 289 287 287 290 288 283 286 279 279 282 285 288 285 284 286
257 254 254 255 256 259 264 269 275 273 272 272 269 270 273 273 270 267 265 269 268 264 265 268 280 286 289 283 282 283 286 286 290 287 283 283 287 286 283 285 288 286 286 287
239 240 244 246 256 267 265 268 265 260 257 262 268 270 273 270 271 266 262 260 260 262 266 277 285 287 285 289 286 282 280 284 286 281 283 281 282 281 283 284 289 286 284 286
247 246 254 262 265 264 262 259 251 248 253 261 266 270 271 268 269 267 263 262 271 262 263 277 283 285 286 284 283 281 282 282 282 283 282 288 282 282 282 283 287 284 283 288
Height
5813 5810 5815 5815 5808 5806 5805 5802 5799 5805 5794 5788 5792 5786 5796 5800 5795 5796 5795 5791 5786 5781 5777 5776 5773 5769 5765 5762 5760 5758 5755 5752 5750 5748 5744 5741 5738 5736 5733 5730 5728 5727 5726 5724
5803 5800 5808 5802 5800 5796 5794 5791 5792 5790 5784 5779 5779 5774 5780 5784 5786 5788 5785 5784 5778 5774 5769 5767 5764 5759 5755 5752 5750 5748 5746 5743 5741 5737 5733 5731 5727 5725 5722 5719 5716 5714 5713 5711
5794 5794 5794 5794 5791 5788 5784 5781 5782 5778 5774 5768 5763 5759 5769 5770 5773 5777 5777 5774 5771 5766 5760 5757 5752 5748 5744 5741 5739 5738 5736 5733 5729 5725 5722 5718 5715 5712 5709 5706 5703 5700 5700 5698
5780 5784 5782 5780 5779 5779 5770 5775 5771 5768 5761 5757 5750 5736 5754 5759 5758 5761 5764 5764 5760 5755 5750 5745 5740 5737 5733 5730 5727 5724 5723 5721 5718 5713 5709 5705 5702 5699 5695 5693 5690 5688 5685 5683
5772 5768 5771 5768 5769 5767 5761 5762 5760 5756 5750 5742 5739 5738 5734 5741 5744 5748 5748 5750 5743 5741 5738 5735 5731 5727 5723 5719 5715 5712 5712 5711 5706 5701 5697 5693 5690 5687 5684 5681 5678 5675 5672 5670
5761 5757 5757 5757 5757 5755 5753 5749 5748 5743 5738 5725 5733 5730 5720 5725 5731 5731 5734 5738 5730 5723 5723 5721 5719 5716 5712 5708 5703 5702 5699 5698 5696 5691 5686 5682 5678 5674 5672 5668 5664 5661 5658 5655
5747 5744 5744 5744 5743 5742 5740 5739 5733 5727 5722 5714 5725 5715 5709 5711 5714 5714 5721 5724 5719 5715 5711 5709 5707 5703 5698 5695 5690 5688 5684 5683 5684 5681 5674 5669 5664 5660 5657 5653 5650 5647 5644 5641
5729 5728 5733 5733 5731 5728 5726 5725 5721 5714 5715 5705 5710 5696 5700 5702 5701 5703 5709 5710 5706 5703 5700 5697 5694 5690 5686 5681 5679 5674 5673 5672 5671 5669 5664 5657 5652 5648 5644 5640 5636 5633 5630 5626
5716 5713 5714 5713 5714 5714 5709 5706 5710 5704 5702 5696 5691 5689 5693 5692 5689 5689 5697 5699 5694 5691 5689 5686 5681 5679 5676 5670 5665 5662 5660 5661 5658 5655 5651 5644 5639 5635 5631 5627 5623 5619 5614 5610
5699 5691 5696 5696 5698 5696 5694 5699 5693 5690 5687 5682 5678 5682 5677 5680 5676 5682 5687 5686 5684 5678 5677 5672 5665 5667 5662 5658 5654 5651 5649 5646 5642 5639 5636 5631 5626 5621 5617 5613 5608 5603 5599 5595
5682 5676 5681 5679 5680 5685 5681 5679 5677 5676 5673 5670 5673 5665 5663 5664 5665 5670 5673 5673 5671 5665 5663 5659 5655 5652 5648 5644 5642 5640 5635 5630 5627 5623 5619 5615 5611 5606 5602 5597 5593 5588 5583 5580
5663 5655 5651 5661 5663 5666 5660 5661 5661 5658 5664 5659 5658 5643 5655 5665 5664 5659 5660 5660 5657 5654 5648 5643 5642 5636 5633 5630 5627 5624 5620 5615 5610 5607 5603 5598 5595 5590 5586 5581 5577 5572 5568 5564
5644 5629 5627 5639 5646 5644 5643 5650 5647 5642 5643 5637 5634 5637 5654 5659 5652 5648 5645 5642 5639 5634 5633 5630 5625 5620 5617 5614 5609 5607 5606 5602 5597 5591 5586 5582 5577 5573 5569 5565 5561 5556 5551 5546
5617 5611 5611 5615 5633 5632 5624 5625 5626 5622 5618 5621 5616 5619 5637 5644 5640 5639 5635 5631 5622 5620 5612 5612 5607 5606 5602 5596 5594 5593 5590 5585 5581 5575 5570 5565 5561 5557 5553 5549 5545 5540 5535 5530
5598 5591 5596 5599 5607 5613 5607 5606 5606 5606 5602 5593 5611 5600 5615 5621 5622 5620 5614 5615 5605 5604 5600 5592 5591 5588 5587 5583 5579 5576 5573 5570 5565 5559 5554 5549 5544 5540 5536 5531 5527 5523 5518 5514
5583 5577 5577 5574 5586 5588 5581 5584 5590 5593 5586 5584 5585 5584 5603 5598 5601 5601 5599 5592 5583 5590 5583 5579 5576 5572 5569 5567 5562 5558 5555 5551 5546 5541 5536 5531 5527 5522 5519 5513 5509 5505 5501 5496
5566 5566 5562 5555 5568 5562 5547 5574 5577 5577 5581 5576 5565 5575 5582 5582 5581 5582 5578 5573 5568 5568 5567 5564 5561 5557 5553 5549 5545 5542 5536 5533 5528 5524 5519 5513 5509 5505 5502 5498 5492 5488 5483 5478
5549 5548 5543 5538 5543 5522 5547 5561 5562 5558 5558 5566 5557 5560 5567 5565 5567 5560 5557 5548 5546 5545 5546 5545 5541 5538 5535 5531 5526 5522 5518 5515 5510 5507 5502 5498 5494 5491 5487 5482 5477 5472 5467 5462
5531 5528 5518 5513 5511 5512 5516 5547 5551 5543 5534 5544 5546 5551 5551 5548 5539 5537 5545 5532 5522 5525 5521 5522 5520 5517 5515 5513 5508 5504 5500 5495 5491 5488 5484 5481 5478 5475 5470 5466 5461 5456 5451 5446
5505 5499 5495 5493 5484 5478 5503 5523 5536 5530 5478 5527 5538 5531 5528 5526 5510 5518 5523 5507 5505 5504 5504 5501 5500 5494 5491 5489 5486 5483 5479 5476 5473 5471 5468 5464 5462 5458 5453 5448 5444 5439 5435 5430
5479 5473 5467 5470 5461 5459 5480 5500 5505 5477 5483 5507 5506 5503 5501 5496 5496 5498 5493 5491 5486 5482 5484 5482 5480 5477 5474 5472 5470 5467 5464 5461 5458 5455 5452 5449 5445 5441 5436 5432 5427 5423 5418 5412
5457 5457 5452 5450 5443 5435 5467 5472 5464 5469 5472 5472 5473 5472 5471 5475 5475 5475 5473 5468 5466 5465 5464 5464 5461 5461 5457 5454 5452 5452 5450 5447 5442 5439 5436 5432 5428 5424 5420 5415 5411 5406 5401 5395
5431 5437 5433 5431 5423 5435 5439 5435 5440 5440 5439 5445 5446 5448 5447 5445 5450 5449 5447 5444 5443 5445 5445 5444 5443 5444 5443 5438 5433 5432 5432 5429 5426 5424 5419 5414 5411 5407 5403 5399 5394 5390 5385 5377
5409 5414 5408 5408 5410 5414 5414 5414 5415 5416 5413 5413 5419 5424 5422 5421 5425 5425 5423 5424 5425 5426 5424 5424 5425 5424 5424 5422 5417 5414 5410 5410 5408 5406 5403 5398 5393 5389 5386 5381 5376 5372 5368 5362
5396 5391 5392 5383 5391 5395 5397 5398 5394 5392 5391 5392 5395 5397 5402 5402 5404 5403 5403 5404 5405 5406 5405 5404 5403 5403 5403 5401 5399 5396 5392 5391 5391 5388 5384 5380 5377 5372 5367 5363 5359 5356 5352 5346
5379 5369 5362 5355 5378 5370 5364 5370 5372 5368 5370 5373 5371 5374 5380 5381 5382 5382 5382 5382 5383 5386 5382 5382 5382 5381 5382 5381 5379 5377 5375 5373 5371 5369 5365 5361 5357 5353 5350 5347 5342 5340 5336 5332